Weather History for Hatteras, NC

Change the Weather History Date:

Sunday, October 30, 2011

  Actual Average Record
Temperature  
Mean Temperature 51 °F 62 °F  
Max Temperature 57 °F 68 °F 79 °F (1971)
Min Temperature 45 °F 56 °F 35 °F (1976)
Degree Days  
Heating Degree Days 14 4  
Month to date heating degree days 52 67  
Since 1 July heating degree days 52 70  
Cooling Degree Days 0 1  
Month to date cooling degree days 103 96  
Year to date cooling degree days 2369 1688  
Moisture  
Dew Point 37 °F    
Average Humidity 61    
Maximum Humidity 76    
Minimum Humidity 46    
Precipitation  
Precipitation 0.00 in 0.16 in 2.42 in (1899)
Month to date precipitation 6.66 5.22  
Year to date precipitation 53.81 48.66  
Snow  
Snow 0.00 in - - ()
Month to date snowfall 0.0  
Since 1 July snowfall 0.0  
Snow Depth 0.00 in    
Sea Level Pressure  
Sea Level Pressure 30.22 in    
Wind  
Wind Speed 8 mph (NNE)    
Max Wind Speed 16 mph    
Max Gust Speed 30 mph    
Visibility 10 miles    
Events      
T = Trace of Precipitation, MM = Missing Value Source: NWS Daily Summary

Daily Weather History Graph

Daily Weather History Graph

Search for Another Location

Airport:

Trip Planner

Search our weather history database for the weather conditions in past years. The results will help you decide how hot, cold, wet, or windy it might be!

Date:

Astronomy

Oct. 30, 2011 Rise Set
Actual Time 7:21 AM EDT 6:10 PM EDT
Civil Twilight 6:55 AM EDT 6:36 PM EDT
Nautical Twilight 6:25 AM EDT 7:06 PM EDT
Astronomical Twilight 5:56 AM EDT 7:35 PM EDT
Moon 11:32 AM EDT (10/30) 9:42 PM EDT (10/30)
Length of Visible Light 11h 40m
Length of Day
10h 48m
Waxing Crescent, 20% of the Moon is Illuminated
Oct 30
Waxing Crescent
Nov 2
First Quarter
Nov 10
Full
Nov 18
Last Quarter
Nov 25
New

Hourly Weather History & Observations

Time (EDT) Temp. Windchill Dew Point Humidity Pressure Visibility Wind Dir Wind Speed Gust Speed Precip Events Conditions
12:03 AM 46.4 °F 41.5 °F 37.4 °F 71% 30.03 in 10.0 mi North 10.4 mph 26.5 mph N/A   Scattered Clouds
12:51 AM 46.9 °F - 37.0 °F 68% 30.04 in 10.0 mi NNW 13.8 mph 26.5 mph N/A   Partly Cloudy
1:51 AM 46.9 °F - 36.0 °F 66% 30.07 in 10.0 mi NNW 12.7 mph 27.6 mph N/A   Clear
2:51 AM 46.0 °F 41.4 °F 35.1 °F 66% 30.07 in 10.0 mi North 9.2 mph 25.3 mph N/A   Clear
3:51 AM 46.0 °F 40.6 °F 36.0 °F 68% 30.09 in 10.0 mi NNW 11.5 mph 26.5 mph N/A   Clear
4:51 AM 46.0 °F 41.0 °F 36.0 °F 68% 30.11 in 10.0 mi North 10.4 mph 24.2 mph N/A   Clear
5:51 AM 45.0 °F 39.7 °F 37.0 °F 74% 30.14 in 10.0 mi North 10.4 mph 20.7 mph N/A   Clear
6:51 AM 45.0 °F 39.7 °F 37.9 °F 76% 30.17 in 10.0 mi North 10.4 mph 17.3 mph N/A   Partly Cloudy
7:51 AM 45.0 °F 41.8 °F 37.0 °F 74% 30.20 in 10.0 mi Variable 5.8 mph 19.6 mph N/A   Clear
8:51 AM 46.9 °F - 37.9 °F 71% 30.24 in 10.0 mi Variable 6.9 mph - N/A   Partly Cloudy
9:51 AM 50.0 °F - 39.9 °F 68% 30.26 in 10.0 mi Variable 4.6 mph - N/A   Partly Cloudy
10:51 AM 53.1 °F - 41.0 °F 64% 30.27 in 10.0 mi Variable 4.6 mph - N/A   Clear
11:51 AM 54.0 °F - 41.0 °F 62% 30.27 in 10.0 mi NNE 9.2 mph 17.3 mph N/A   Clear
12:51 PM 54.0 °F - 41.0 °F 62% 30.27 in 10.0 mi Variable 5.8 mph 17.3 mph N/A   Clear
1:51 PM 55.0 °F - 41.0 °F 59% 30.27 in 10.0 mi North 9.2 mph 20.7 mph N/A   Partly Cloudy
2:51 PM 55.9 °F - 37.0 °F 49% 30.27 in 10.0 mi NNE 11.5 mph 19.6 mph N/A   Clear
3:51 PM 55.9 °F - 35.1 °F 45% 30.27 in 10.0 mi NNE 10.4 mph 21.9 mph N/A   Clear
4:51 PM 55.0 °F - 36.0 °F 49% 30.27 in 10.0 mi NNE 12.7 mph 20.7 mph N/A   Clear
5:51 PM 53.1 °F - 36.0 °F 52% 30.29 in 10.0 mi NNE 9.2 mph 18.4 mph N/A   Clear
6:51 PM 52.0 °F - 35.1 °F 53% 30.31 in 10.0 mi NNE 9.2 mph 18.4 mph N/A   Clear
7:51 PM 53.1 °F - 34.0 °F 48% 30.32 in 10.0 mi NE 6.9 mph - N/A   Clear
8:51 PM 53.1 °F - 35.1 °F 50% 30.32 in 10.0 mi NE 6.9 mph - N/A   Clear
9:51 PM 52.0 °F - 35.1 °F 53% 30.34 in 10.0 mi ENE 5.8 mph - N/A   Clear
10:51 PM 52.0 °F - 36.0 °F 54% 30.35 in 10.0 mi NE 4.6 mph - N/A   Clear
11:51 PM 52.0 °F - 37.9 °F 59% 30.34 in 10.0 mi ENE 4.6 mph - N/A   Clear